DAL9962 KDTW-KATL

Flight info

Callsign DAL9962
Flight time 1h 37m
Altitude 36000
Route BARII3 SINKR IIU Q139 HITMN/N0442F350 NEWBB IHAVE MTHEW CHPPR1
Aircraft A321/M-SDE3FGHIRWY/LB1

Departure

Time 2026-05-04 13:50
Airport Detroit Metropolitan Wayne County Airport (KDTW)

Arrival

Time 2026-05-04 15:28
Airport Hartsfield Jackson Atlanta International Airport (KATL)
Time Latitude Longitude Altitude Speed Heading
2026-05-04 13:00 42.20481 -83.36135 647 ft 0 kts 119°
2026-05-04 13:35 42.20484 -83.36141 646 ft 4 kts 119°
2026-05-04 13:36 42.20497 -83.36173 647 ft 4 kts 119°
2026-05-04 13:36 42.20508 -83.36198 648 ft 4 kts 117°
2026-05-04 13:36 42.20513 -83.36227 649 ft 4 kts 56°
2026-05-04 13:36 42.20495 -83.36246 648 ft 4 kts 28°
2026-05-04 13:37 42.20485 -83.36253 649 ft 0 kts 28°
2026-05-04 13:39 42.20488 -83.36251 647 ft 2 kts 28°
2026-05-04 13:39 42.20510 -83.36234 647 ft 4 kts 29°
2026-05-04 13:40 42.20539 -83.36213 646 ft 5 kts 29°
2026-05-04 13:40 42.20573 -83.36187 646 ft 6 kts 29°
2026-05-04 13:40 42.20613 -83.36158 647 ft 8 kts 27°
2026-05-04 13:40 42.20668 -83.36117 647 ft 10 kts 28°
2026-05-04 13:41 42.20739 -83.36065 646 ft 13 kts 29°
2026-05-04 13:41 42.20821 -83.36005 646 ft 14 kts 28°
2026-05-04 13:41 42.20909 -83.35940 646 ft 14 kts 28°
2026-05-04 13:42 42.21084 -83.35812 648 ft 15 kts 28°
2026-05-04 13:42 42.21173 -83.35746 647 ft 15 kts 28°
2026-05-04 13:42 42.21263 -83.35680 646 ft 15 kts 28°
2026-05-04 13:42 42.21354 -83.35613 646 ft 15 kts 28°
2026-05-04 13:43 42.21450 -83.35542 646 ft 16 kts 28°
2026-05-04 13:43 42.21539 -83.35451 647 ft 16 kts 62°
2026-05-04 13:43 42.21550 -83.35294 646 ft 17 kts 89°
2026-05-04 13:43 42.21553 -83.35128 646 ft 18 kts 83°
2026-05-04 13:44 42.21627 -83.34992 647 ft 19 kts 44°
2026-05-04 13:44 42.21721 -83.34872 647 ft 18 kts 43°
2026-05-04 13:44 42.21809 -83.34759 646 ft 16 kts 45°
2026-05-04 13:44 42.21835 -83.34627 647 ft 14 kts 89°
2026-05-04 13:45 42.21853 -83.34510 648 ft 12 kts 52°
2026-05-04 13:45 42.21921 -83.34452 647 ft 12 kts 29°
2026-05-04 13:45 42.21991 -83.34401 646 ft 11 kts 28°
2026-05-04 13:45 42.22061 -83.34349 648 ft 12 kts 28°
2026-05-04 13:46 42.22142 -83.34289 646 ft 15 kts 28°
2026-05-04 13:46 42.22238 -83.34219 646 ft 17 kts 28°
2026-05-04 13:46 42.22344 -83.34140 646 ft 18 kts 28°
2026-05-04 13:46 42.22446 -83.34065 646 ft 16 kts 28°
2026-05-04 13:47 42.22535 -83.34000 646 ft 14 kts 28°
2026-05-04 13:47 42.22615 -83.33942 647 ft 12 kts 28°
2026-05-04 13:47 42.22686 -83.33889 646 ft 11 kts 29°
2026-05-04 13:47 42.22750 -83.33842 646 ft 10 kts 28°
2026-05-04 13:48 42.22807 -83.33799 646 ft 9 kts 28°
2026-05-04 13:48 42.22855 -83.33752 645 ft 8 kts 61°
2026-05-04 13:48 42.22844 -83.33679 645 ft 8 kts 117°
2026-05-04 13:48 42.22819 -83.33631 645 ft 4 kts 158°
2026-05-04 13:49 42.22798 -83.33640 645 ft 0 kts 206°
2026-05-04 13:49 42.22797 -83.33641 645 ft 1 kts 206°
2026-05-04 13:49 42.22678 -83.33728 647 ft 51 kts 209°
2026-05-04 13:50 42.22174 -83.34099 648 ft 111 kts 208°
2026-05-04 13:50 42.21360 -83.34701 682 ft 151 kts 209°
2026-05-04 13:50 42.20452 -83.35394 1319 ft 148 kts 211°
2026-05-04 13:50 42.19544 -83.36068 1958 ft 149 kts 213°
2026-05-04 13:51 42.18582 -83.36652 2425 ft 161 kts 203°
2026-05-04 13:51 42.17434 -83.37078 2552 ft 183 kts 202°
2026-05-04 13:51 42.16142 -83.37564 2728 ft 202 kts 201°
2026-05-04 13:51 42.14696 -83.38108 2851 ft 230 kts 201°
2026-05-04 13:52 42.11450 -83.39331 4090 ft 248 kts 200°
2026-05-04 13:52 42.09773 -83.39952 4893 ft 251 kts 199°
2026-05-04 13:52 42.08074 -83.40579 5658 ft 254 kts 199°
2026-05-04 13:53 42.06357 -83.41199 6408 ft 258 kts 199°
2026-05-04 13:53 42.04598 -83.41789 6871 ft 263 kts 198°
2026-05-04 13:53 42.02815 -83.42363 6978 ft 264 kts 198°
2026-05-04 13:54 41.99247 -83.43505 7003 ft 264 kts 198°
2026-05-04 13:54 41.97461 -83.44082 7006 ft 264 kts 198°
2026-05-04 13:54 41.94014 -83.45660 7008 ft 261 kts 207°
2026-05-04 13:55 41.92326 -83.46628 7391 ft 265 kts 206°
2026-05-04 13:55 41.88896 -83.48582 8918 ft 272 kts 207°
2026-05-04 13:55 41.87139 -83.49582 9601 ft 277 kts 207°
2026-05-04 13:56 41.85354 -83.50598 10213 ft 282 kts 207°
2026-05-04 13:56 41.83479 -83.51671 10404 ft 304 kts 207°
2026-05-04 13:56 41.80053 -83.53627 10798 ft 334 kts 206°
2026-05-04 13:57 41.77895 -83.54844 11370 ft 339 kts 206°
2026-05-04 13:57 41.75709 -83.56074 12010 ft 343 kts 206°
2026-05-04 13:58 41.69004 -83.59893 13864 ft 354 kts 208°
2026-05-04 13:58 41.64545 -83.62815 15023 ft 360 kts 211°
2026-05-04 13:58 41.62308 -83.64339 15607 ft 362 kts 211°
2026-05-04 13:59 41.60046 -83.65877 16179 ft 365 kts 211°
2026-05-04 13:59 41.57766 -83.67409 16746 ft 368 kts 211°
2026-05-04 13:59 41.53136 -83.70478 17861 ft 374 kts 211°
2026-05-04 14:00 41.50794 -83.72014 18359 ft 377 kts 211°
2026-05-04 14:00 41.46051 -83.75117 19321 ft 382 kts 211°
2026-05-04 14:00 41.43658 -83.76679 19786 ft 384 kts 211°
2026-05-04 14:01 41.41249 -83.78253 20253 ft 387 kts 211°
2026-05-04 14:01 41.38830 -83.79835 20696 ft 389 kts 211°
2026-05-04 14:01 41.33938 -83.83042 21607 ft 394 kts 211°
2026-05-04 14:02 41.31504 -83.84640 22056 ft 397 kts 211°
2026-05-04 14:02 41.29020 -83.86266 22505 ft 399 kts 211°
2026-05-04 14:02 41.26522 -83.87895 22947 ft 401 kts 211°
2026-05-04 14:02 41.24007 -83.89534 23381 ft 404 kts 211°
2026-05-04 14:03 41.21477 -83.91180 23734 ft 406 kts 211°
2026-05-04 14:03 41.18934 -83.92833 24109 ft 408 kts 211°
2026-05-04 14:03 41.16375 -83.94495 24451 ft 410 kts 211°
2026-05-04 14:03 41.13802 -83.96165 24804 ft 413 kts 211°
2026-05-04 14:04 41.08609 -83.99529 25480 ft 418 kts 211°
2026-05-04 14:04 41.05989 -84.01222 25809 ft 420 kts 210°
2026-05-04 14:04 41.03348 -84.02925 26139 ft 423 kts 210°
2026-05-04 14:05 40.98031 -84.06358 26789 ft 428 kts 210°
2026-05-04 14:05 40.95345 -84.08096 27103 ft 430 kts 210°
2026-05-04 14:05 40.92653 -84.09838 27438 ft 432 kts 210°
2026-05-04 14:06 40.89943 -84.11583 27753 ft 435 kts 210°
2026-05-04 14:06 40.87211 -84.13320 28063 ft 437 kts 209°
2026-05-04 14:06 40.84443 -84.15019 28363 ft 440 kts 209°
2026-05-04 14:06 40.81653 -84.16694 28660 ft 442 kts 208°
2026-05-04 14:07 40.78837 -84.18364 28950 ft 444 kts 208°
2026-05-04 14:07 40.76005 -84.20041 29226 ft 446 kts 208°
2026-05-04 14:07 40.73169 -84.21732 29531 ft 448 kts 208°
2026-05-04 14:07 40.70326 -84.23437 29827 ft 450 kts 208°
2026-05-04 14:08 40.67473 -84.25151 30081 ft 452 kts 208°
2026-05-04 14:08 40.64646 -84.26848 30391 ft 452 kts 208°
2026-05-04 14:08 40.61787 -84.28561 30767 ft 451 kts 209°
2026-05-04 14:08 40.58896 -84.30291 31141 ft 450 kts 209°
2026-05-04 14:09 40.53249 -84.33671 31879 ft 448 kts 209°
2026-05-04 14:09 40.50414 -84.35364 32233 ft 447 kts 209°
2026-05-04 14:10 40.44756 -84.38731 32944 ft 446 kts 208°
2026-05-04 14:10 40.41907 -84.40342 33307 ft 446 kts 207°
2026-05-04 14:10 40.39031 -84.41878 33664 ft 446 kts 207°
2026-05-04 14:10 40.36141 -84.43363 33985 ft 446 kts 206°
2026-05-04 14:11 40.33249 -84.44824 34236 ft 446 kts 206°
2026-05-04 14:11 40.27475 -84.47764 34785 ft 444 kts 207°
2026-05-04 14:11 40.24602 -84.49257 35033 ft 444 kts 207°
2026-05-04 14:12 40.21736 -84.50760 35270 ft 444 kts 207°
2026-05-04 14:12 40.18871 -84.52267 35514 ft 444 kts 207°
2026-05-04 14:12 40.13131 -84.55280 35850 ft 444 kts 207°
2026-05-04 14:13 40.10270 -84.56775 35867 ft 442 kts 207°
2026-05-04 14:13 40.04566 -84.59739 35862 ft 440 kts 207°
2026-05-04 14:14 39.98874 -84.62691 35874 ft 440 kts 207°
2026-05-04 14:14 39.90341 -84.67120 35858 ft 440 kts 207°
2026-05-04 14:15 39.78990 -84.72986 35906 ft 438 kts 207°
2026-05-04 14:16 39.70486 -84.77360 35906 ft 438 kts 207°
2026-05-04 14:17 39.61984 -84.81728 35886 ft 438 kts 208°
2026-05-04 14:18 39.53476 -84.86080 35893 ft 438 kts 208°
2026-05-04 14:19 39.42138 -84.91883 35876 ft 438 kts 208°
2026-05-04 14:19 39.36464 -84.94786 35882 ft 439 kts 208°
2026-05-04 14:20 39.30809 -84.97658 35881 ft 440 kts 208°
2026-05-04 14:20 39.25111 -85.00540 35887 ft 440 kts 208°
2026-05-04 14:21 39.16564 -85.04862 35873 ft 440 kts 209°
2026-05-04 14:21 39.10858 -85.07748 35890 ft 441 kts 209°
2026-05-04 14:22 39.05147 -85.10628 35897 ft 441 kts 209°
2026-05-04 14:22 38.99429 -85.13504 35902 ft 441 kts 209°
2026-05-04 14:23 38.90849 -85.17821 35921 ft 441 kts 210°
2026-05-04 14:24 38.85135 -85.20693 35925 ft 441 kts 209°
2026-05-04 14:24 38.79412 -85.23546 35911 ft 441 kts 209°
2026-05-04 14:25 38.73697 -85.26408 35934 ft 441 kts 210°
2026-05-04 14:25 38.65160 -85.30665 35952 ft 440 kts 210°
2026-05-04 14:26 38.59453 -85.33503 35953 ft 440 kts 209°
2026-05-04 14:26 38.56597 -85.34920 35465 ft 440 kts 209°
2026-05-04 14:26 38.53764 -85.36325 35615 ft 433 kts 201°
2026-05-04 14:27 38.50981 -85.37707 35799 ft 426 kts 201°
2026-05-04 14:27 38.48244 -85.39066 35979 ft 419 kts 201°
2026-05-04 14:27 38.42844 -85.41738 36009 ft 413 kts 201°
2026-05-04 14:28 38.37517 -85.44368 36009 ft 408 kts 201°
2026-05-04 14:28 38.32256 -85.46967 36009 ft 403 kts 201°
2026-05-04 14:29 38.27051 -85.49531 36425 ft 403 kts 209°
2026-05-04 14:29 38.21752 -85.52150 36367 ft 415 kts 210°
2026-05-04 14:30 38.16287 -85.54845 35938 ft 428 kts 209°
2026-05-04 14:31 38.07844 -85.59054 35955 ft 437 kts 211°
2026-05-04 14:32 37.96855 -85.65519 35961 ft 435 kts 213°
2026-05-04 14:32 37.91357 -85.68751 35972 ft 436 kts 212°
2026-05-04 14:33 37.85833 -85.71923 35939 ft 436 kts 212°
2026-05-04 14:33 37.80306 -85.75071 35977 ft 435 kts 212°
2026-05-04 14:34 37.74833 -85.78205 35990 ft 434 kts 212°
2026-05-04 14:34 37.69333 -85.81358 35993 ft 434 kts 212°
2026-05-04 14:35 37.63832 -85.84502 35967 ft 433 kts 212°
2026-05-04 14:35 37.58342 -85.87638 35981 ft 433 kts 212°
2026-05-04 14:36 37.52861 -85.90768 35991 ft 432 kts 212°
2026-05-04 14:36 37.47382 -85.93892 35994 ft 432 kts 212°
2026-05-04 14:37 37.41904 -85.97004 36001 ft 432 kts 212°
2026-05-04 14:37 37.36428 -86.00110 35975 ft 432 kts 212°
2026-05-04 14:38 37.30944 -86.03210 36004 ft 432 kts 212°
2026-05-04 14:38 37.25459 -86.06308 36025 ft 432 kts 212°
2026-05-04 14:39 37.19975 -86.09409 36027 ft 432 kts 212°
2026-05-04 14:39 37.14530 -86.12489 36011 ft 432 kts 212°
2026-05-04 14:40 37.06301 -86.17117 36020 ft 432 kts 212°
2026-05-04 14:40 37.00813 -86.20189 36021 ft 432 kts 212°
2026-05-04 14:41 36.95325 -86.23264 36029 ft 432 kts 212°
2026-05-04 14:42 36.84351 -86.29408 36023 ft 432 kts 212°
2026-05-04 14:42 36.78856 -86.32464 36037 ft 432 kts 212°
2026-05-04 14:43 36.74289 -86.35011 36043 ft 432 kts 212°
2026-05-04 14:43 36.68797 -86.38072 36023 ft 432 kts 212°
2026-05-04 14:44 36.63310 -86.41114 36044 ft 432 kts 212°
2026-05-04 14:44 36.57830 -86.44157 36059 ft 431 kts 212°
2026-05-04 14:45 36.52350 -86.47203 36065 ft 431 kts 212°
2026-05-04 14:45 36.46868 -86.50229 36065 ft 431 kts 211°
2026-05-04 14:46 36.41390 -86.53252 36046 ft 431 kts 211°
2026-05-04 14:46 36.35950 -86.56252 36056 ft 431 kts 211°
2026-05-04 14:47 36.30435 -86.59281 36064 ft 431 kts 211°
2026-05-04 14:47 36.24958 -86.62285 36072 ft 431 kts 211°
2026-05-04 14:48 36.19487 -86.65191 35782 ft 431 kts 198°
2026-05-04 14:48 36.16590 -86.65993 35964 ft 424 kts 186°
2026-05-04 14:48 36.13622 -86.66096 36009 ft 420 kts 175°
2026-05-04 14:49 36.08009 -86.64366 36009 ft 415 kts 155°
2026-05-04 14:49 36.03019 -86.60955 36008 ft 410 kts 150°
2026-05-04 14:50 35.98083 -86.57480 36009 ft 406 kts 150°
2026-05-04 14:50 35.93208 -86.54053 36009 ft 401 kts 150°
2026-05-04 14:51 35.88393 -86.50673 36009 ft 396 kts 150°
2026-05-04 14:51 35.83634 -86.47333 36009 ft 391 kts 150°
2026-05-04 14:52 35.78937 -86.44045 36009 ft 385 kts 151°
2026-05-04 14:52 35.74304 -86.40813 36009 ft 380 kts 150°
2026-05-04 14:53 35.69746 -86.37601 36008 ft 375 kts 150°
2026-05-04 14:53 35.65269 -86.34408 36008 ft 369 kts 150°
2026-05-04 14:54 35.60859 -86.31271 36235 ft 367 kts 155°
2026-05-04 14:54 35.58629 -86.29679 35806 ft 385 kts 156°
2026-05-04 14:54 35.56257 -86.27999 35489 ft 398 kts 156°
2026-05-04 14:55 35.53856 -86.26324 35674 ft 394 kts 157°
2026-05-04 14:55 35.51498 -86.24687 36058 ft 388 kts 157°
2026-05-04 14:55 35.46784 -86.21380 36268 ft 384 kts 156°
2026-05-04 14:56 35.44440 -86.19716 35989 ft 398 kts 156°
2026-05-04 14:56 35.42044 -86.17811 35403 ft 424 kts 147°
2026-05-04 14:56 35.39703 -86.15495 35165 ft 438 kts 145°
2026-05-04 14:56 35.37297 -86.13115 34927 ft 451 kts 146°
2026-05-04 14:57 35.34800 -86.10687 34675 ft 465 kts 146°
2026-05-04 14:57 35.32227 -86.08206 34429 ft 476 kts 146°
2026-05-04 14:57 35.29620 -86.05691 34171 ft 478 kts 146°
2026-05-04 14:57 35.27014 -86.03168 34080 ft 477 kts 146°
2026-05-04 14:58 35.21824 -85.98154 33894 ft 479 kts 146°
2026-05-04 14:58 35.19203 -85.95640 33620 ft 479 kts 146°
2026-05-04 14:58 35.16575 -85.93129 33325 ft 479 kts 146°
2026-05-04 14:59 35.13948 -85.90622 33070 ft 480 kts 146°
2026-05-04 14:59 35.11315 -85.88113 32808 ft 480 kts 146°
2026-05-04 14:59 35.06060 -85.83104 32301 ft 477 kts 146°
2026-05-04 15:00 35.03452 -85.80620 31747 ft 475 kts 146°
2026-05-04 15:00 35.00852 -85.78144 31160 ft 473 kts 146°
2026-05-04 15:00 34.98262 -85.75683 30581 ft 472 kts 146°
2026-05-04 15:01 34.93094 -85.70781 29372 ft 468 kts 146°
2026-05-04 15:01 34.90534 -85.68356 28782 ft 464 kts 146°
2026-05-04 15:01 34.87996 -85.65950 28235 ft 461 kts 146°
2026-05-04 15:01 34.85478 -85.63558 27670 ft 458 kts 146°
2026-05-04 15:02 34.82973 -85.61180 27136 ft 455 kts 146°
2026-05-04 15:02 34.80479 -85.58822 26636 ft 452 kts 146°
2026-05-04 15:02 34.78012 -85.56492 26154 ft 447 kts 146°
2026-05-04 15:02 34.75565 -85.54179 25687 ft 443 kts 146°
2026-05-04 15:03 34.73142 -85.51888 25227 ft 439 kts 146°
2026-05-04 15:03 34.70771 -85.49646 24778 ft 436 kts 146°
2026-05-04 15:03 34.68388 -85.47396 24313 ft 432 kts 146°
2026-05-04 15:03 34.66028 -85.45166 23877 ft 428 kts 146°
2026-05-04 15:04 34.63684 -85.42956 23364 ft 425 kts 146°
2026-05-04 15:04 34.61363 -85.40768 22923 ft 419 kts 146°
2026-05-04 15:04 34.59073 -85.38612 22465 ft 415 kts 146°
2026-05-04 15:04 34.56807 -85.36482 22026 ft 410 kts 146°
2026-05-04 15:05 34.54557 -85.34371 21571 ft 407 kts 146°
2026-05-04 15:05 34.52331 -85.32283 21126 ft 403 kts 145°
2026-05-04 15:05 34.50117 -85.30207 20673 ft 401 kts 145°
2026-05-04 15:05 34.47915 -85.28145 20228 ft 399 kts 145°
2026-05-04 15:06 34.45726 -85.26099 19769 ft 396 kts 145°
2026-05-04 15:06 34.43547 -85.24064 19310 ft 395 kts 145°
2026-05-04 15:06 34.41376 -85.22031 18866 ft 393 kts 144°
2026-05-04 15:07 34.37039 -85.17976 17768 ft 393 kts 144°
2026-05-04 15:07 34.34884 -85.15967 17332 ft 390 kts 144°
2026-05-04 15:07 34.32742 -85.13968 16869 ft 386 kts 144°
2026-05-04 15:07 34.30624 -85.11992 16446 ft 383 kts 144°
2026-05-04 15:08 34.28524 -85.10032 16015 ft 380 kts 144°
2026-05-04 15:08 34.26441 -85.08086 15577 ft 377 kts 144°
2026-05-04 15:08 34.24374 -85.06161 15145 ft 374 kts 144°
2026-05-04 15:08 34.22321 -85.04253 14714 ft 371 kts 144°
2026-05-04 15:09 34.20280 -85.02359 14289 ft 367 kts 144°
2026-05-04 15:09 34.18320 -85.00541 13859 ft 352 kts 144°
2026-05-04 15:09 34.16390 -84.98753 13410 ft 338 kts 144°
2026-05-04 15:10 34.12777 -84.95386 12868 ft 330 kts 143°
2026-05-04 15:10 34.10990 -84.93690 12649 ft 323 kts 143°
2026-05-04 15:10 34.07544 -84.90407 12237 ft 308 kts 143°
2026-05-04 15:11 34.05866 -84.88817 12036 ft 306 kts 143°
2026-05-04 15:11 34.04197 -84.87238 11842 ft 305 kts 143°
2026-05-04 15:11 34.02533 -84.85667 11637 ft 302 kts 143°
2026-05-04 15:11 34.00881 -84.84111 11438 ft 300 kts 143°
2026-05-04 15:12 33.99242 -84.82567 11234 ft 298 kts 143°
2026-05-04 15:12 33.97614 -84.81030 11039 ft 297 kts 142°
2026-05-04 15:12 33.95994 -84.79499 10844 ft 295 kts 142°
2026-05-04 15:12 33.94383 -84.77979 10652 ft 293 kts 142°
2026-05-04 15:13 33.92782 -84.76471 10460 ft 292 kts 142°
2026-05-04 15:13 33.91190 -84.74974 10261 ft 289 kts 142°
2026-05-04 15:13 33.89628 -84.73505 10094 ft 288 kts 142°
2026-05-04 15:13 33.88053 -84.72023 9894 ft 286 kts 142°
2026-05-04 15:14 33.86491 -84.70555 9640 ft 285 kts 142°
2026-05-04 15:14 33.84934 -84.69094 9480 ft 283 kts 142°
2026-05-04 15:14 33.83383 -84.67635 9327 ft 283 kts 142°
2026-05-04 15:14 33.81831 -84.66176 9200 ft 283 kts 142°
2026-05-04 15:15 33.80274 -84.64715 9076 ft 284 kts 142°
2026-05-04 15:15 33.78716 -84.63256 8948 ft 284 kts 142°
2026-05-04 15:15 33.77159 -84.61796 8820 ft 284 kts 142°
2026-05-04 15:16 33.74334 -84.58529 8571 ft 283 kts 121°
2026-05-04 15:16 33.73541 -84.56373 8447 ft 283 kts 105°
2026-05-04 15:16 33.73307 -84.51665 8199 ft 283 kts 90°
2026-05-04 15:17 33.73310 -84.49298 8070 ft 283 kts 91°
2026-05-04 15:17 33.73304 -84.44572 7828 ft 283 kts 91°
2026-05-04 15:17 33.73300 -84.42237 7707 ft 282 kts 91°
2026-05-04 15:18 33.73300 -84.39919 7581 ft 272 kts 90°
2026-05-04 15:18 33.73302 -84.37695 7455 ft 261 kts 91°
2026-05-04 15:18 33.73303 -84.35572 7326 ft 248 kts 91°
2026-05-04 15:19 33.73298 -84.31547 6881 ft 237 kts 91°
2026-05-04 15:19 33.73297 -84.29575 6666 ft 236 kts 91°
2026-05-04 15:19 33.73301 -84.25639 6216 ft 235 kts 90°
2026-05-04 15:20 33.73302 -84.23672 5986 ft 235 kts 91°
2026-05-04 15:20 33.73302 -84.21706 5760 ft 236 kts 90°
2026-05-04 15:20 33.73301 -84.19736 5548 ft 236 kts 90°
2026-05-04 15:20 33.73300 -84.17762 5320 ft 236 kts 90°
2026-05-04 15:21 33.73303 -84.15791 5109 ft 235 kts 90°
2026-05-04 15:21 33.73307 -84.13829 4966 ft 235 kts 90°
2026-05-04 15:21 33.72052 -84.10430 4706 ft 230 kts 149°
2026-05-04 15:22 33.70559 -84.09868 4629 ft 226 kts 182°
2026-05-04 15:22 33.69085 -84.10377 4565 ft 221 kts 215°
2026-05-04 15:22 33.66966 -84.12944 4416 ft 218 kts 241°
2026-05-04 15:23 33.66235 -84.14565 4340 ft 218 kts 244°
2026-05-04 15:23 33.65554 -84.16155 4271 ft 217 kts 244°
2026-05-04 15:23 33.64983 -84.17800 4211 ft 212 kts 259°
2026-05-04 15:23 33.64922 -84.19556 4159 ft 212 kts 270°
2026-05-04 15:24 33.64939 -84.23005 3889 ft 195 kts 270°
2026-05-04 15:24 33.64944 -84.26132 3436 ft 183 kts 271°
2026-05-04 15:25 33.64945 -84.27649 3181 ft 177 kts 270°
2026-05-04 15:25 33.64947 -84.29099 2956 ft 172 kts 270°
2026-05-04 15:25 33.64949 -84.30501 2754 ft 162 kts 270°
2026-05-04 15:26 33.64951 -84.33003 2332 ft 142 kts 270°
2026-05-04 15:26 33.64952 -84.34184 2119 ft 141 kts 269°
2026-05-04 15:26 33.64956 -84.36535 1758 ft 142 kts 269°
2026-05-04 15:27 33.64957 -84.37720 1563 ft 142 kts 269°
2026-05-04 15:27 33.64956 -84.40050 1199 ft 139 kts 268°
2026-05-04 15:28 33.64954 -84.42241 1036 ft 96 kts 270°
2026-05-04 15:28 33.64954 -84.42759 1036 ft 48 kts 270°
2026-05-04 15:28 33.64917 -84.43208 1036 ft 13 kts 247°
2026-05-04 15:29 33.64878 -84.43302 1035 ft 13 kts 240°
2026-05-04 15:30 33.64697 -84.43617 1035 ft 16 kts 210°
2026-05-04 15:30 33.64518 -84.43881 1035 ft 14 kts 261°
2026-05-04 15:31 33.64465 -84.44094 1035 ft 12 kts 221°
2026-05-04 15:31 33.64402 -84.44070 1035 ft 10 kts 138°
2026-05-04 15:32 33.64226 -84.44052 1035 ft 8 kts 180°
2026-05-04 15:32 33.64165 -84.44024 1035 ft 5 kts 103°
2026-05-04 15:33 33.64164 -84.43969 1035 ft 0 kts 90°